sat.trackr.live / text

‹ back to catalog

STARLINK-34738

NORAD 64951 · 2025-158V

PAYLOAD ACTIVE UNKNOWN

§ Identity

Operator
Country
US
Launch date
2025-07-27
Launch site
AFWTR
Launch vehicle
Mass (kg)
RCS (m²)

Purposes: comms

External: N2YO · Heavens-Above · Gunter

§ Orbital elements

Epoch: 2026-05-25T03:33:06.246144Z

Period
95.64 min
Inclination
97.4490°
Eccentricity
0.0002665
Mean motion
15.05661684 rev/d
Perigee alt
547.6 km
Apogee alt
551.3 km
Semi-major
6,927.6 km
B*
3.7675e-4
RAAN
9.1180°
Arg perigee
78.9010°
Mean anomaly
281.2517°
Rev number
4,686

§ Raw data

STARLINK-347381 64951U 25158V   26145.14798896  .00005383  00000+0  37675-3 0  99952 64951  97.4490   9.1180 0002665  78.9010 281.2517 15.05661684 46865

JSON: /api/v1/satellites/64951 · /tle

For live sub-satellite position, see the globe view (requires WebGL).

§ Visibility from observer

Set your observer location to see the next 7 days of passes ≥ 10°. The values pass through the URL so the page stays shareable.

No JS? Fill the form by hand. The geolocation button needs JavaScript.